Location: Melara
(45.0500°N, 11.1833°E)
Time: 21:32:15
(UTC+00:00)

Cosmos 1656 Rocket - Pass Details

Date: 26 May 2022
Orbit: 796 x 845 km, 71.1° (Epoch: 03 July)

Event Time Altitude Azimuth Distance (km) Brightness Sun altitude
Rises 02:01:26 0° 335° (NNW) 3,312 7.1 -13.5°
Reaches altitude 10° 02:03:51 10° 337° (NNW) 2,377 6.4 -13.2°
Maximum altitude 02:09:17 79° 64° (ENE) 818 3.7 -12.6°
Drops below altitude 10° 02:14:42 10° 151° (SSE) 2,369 5.9 -11.9°
Sets 02:17:06 0° 153° (SSE) 3,300 6.6 -11.6°
